カタログに戻る

STARLINK-38103

運用中通信VLEO
NORAD 100022·PAYLOAD·🇺🇸 United States

打ち上げ Jul 14, 2026 から Vandenberg Space Force Base

Loading…

次のパス (今後24時間)

TLE

最新Source: Space-Track

元期: Sep 14, 2026, 15:13 UTC

1 A0022U 26160X   26257.63447466 -.00059920  00000-0 -44656-3 0  9996
2 A0022  70.0015 211.2936 0003759 252.6520 107.4267 15.72621058 11072

AllMySatでSTARLINK-38103をリアルタイム追跡

Download on the App Store